Home   Weather   Amstetten   Past weeks

Flag for Austria Past Weather in Amstetten, Lower Austria, Austria — Yesterday and Last 2 Weeks

Now
34 °F

Overcast.


Feels Like: N/A
Forecast: 37 / 46 °F
Wind: N/A

Location: Linz / Hoersching-Flughafen

Current Time: Feb 20, 2017 at 2:52:47 am

Latest Report: Feb 20, 2017 at 2:00 am


Visibility: 3 mi

Pressure: 30.27 "Hg

Humidity: 92%

Dew Point: 32 °F

Location of AmstettenLocation

Past Weather in Amstetten — Graph

°F

Amstetten Temperature Yesterday

Maximum temperature yesterday: 41 °F (at 3:00 pm)
Minimum temperature yesterday: 32 °F (at 8:00 am)
Average temperature yesterday: 36 °F

High & Low Weather Summary for the Past Weeks

 TemperatureHumidityPressure
High49 °F (Feb 16, 4:00 pm)99% (Feb 7, 6:00 am)30.68 "Hg (Feb 7, 6:00 am)
Low24 °F (Feb 9, 7:00 am)54% (Feb 5, 1:00 pm)29.64 "Hg (Feb 5, 4:00 pm)
Average34 °F83%30.28 "Hg
* Reported Feb 5 1:00 am — Feb 20 1:00 am, Amstetten, Weather by CustomWeather, © 2017

Note: Actual official high and low records may vary slightly from our data, if they occured in-between our weather recording intervals... More about our weather records

Advertising

Amstetten Weather History for the Previous 24 Hours

Scroll right to see more
 ConditionsComfort  
Time TempWeatherWind HumidityBarometerVisibility
1:00 am
Mon, Feb 20
34 °FOvercast.5 mph92%30.27 "Hg3 mi
12:00 am33 °FPassing clouds.N/A91%30.27 "Hg3 mi
11:00 pm
Sun, Feb 19
33 °FPassing clouds.N/A91%30.26 "Hg4 mi
10:00 pm34 °FPassing clouds.5 mph91%30.25 "Hg4 mi
9:00 pm34 °FPassing clouds.N/A89%30.24 "Hg4 mi
8:00 pm36 °FPassing clouds.N/A86%30.22 "Hg6 mi
7:00 pm37 °FPassing clouds.N/A83%30.22 "Hg5 mi
6:00 pm38 °FPassing clouds.N/A82%30.22 "Hg7 mi
5:00 pm40 °FPassing clouds.3 mph76%30.22 "Hg7 mi
4:00 pm41 °FPassing clouds.N/A76%30.23 "Hg6 mi
3:00 pm41 °FScattered clouds.N/A76%30.25 "Hg7 mi
2:00 pm39 °FScattered clouds.N/A80%30.28 "Hg7 mi
1:00 pm39 °FPartly sunny.N/A81%30.30 "Hg6 mi
12:00 pm36 °FPartly sunny.N/A90%30.33 "Hg4 mi
11:00 am34 °FLow clouds.N/A94%30.34 "Hg3 mi
10:00 am32 °FLight snow. Low clouds.N/A98%30.34 "Hg0 mi
9:00 am33 °FLow clouds.N/A96%30.34 "Hg1 mi
8:00 am32 °FLight rain. Low clouds.N/A96%30.34 "Hg1 mi
7:00 am33 °FLow clouds.N/A97%30.33 "Hg4 mi
6:00 am34 °FLow clouds.N/A97%30.33 "Hg2 mi
5:00 am34 °FLow clouds.N/A97%30.34 "Hg2 mi
4:00 am35 °FLow clouds.N/A95%30.34 "Hg3 mi
3:00 am34 °FLow clouds.N/A97%30.34 "Hg2 mi
2:00 am34 °FLow clouds.N/A98%30.35 "Hg2 mi
Weather by CustomWeather, © 2017

See weather overviewHow to use our weather pages